Location: Newark
(34.9756°N, 138.3828°E)
Time: 14:49:32
(UTC+00:00)

Envisat - Visible Passes

Search period start: 11 December 2019 00:00
Search period end: 21 December 2019 00:00
Orbit: 764 x 766 km, 98.1° (Epoch: 11 December)

Date Brightness Start Highest point End Pass type
(mag) Time Alt. Az. Time Alt. Az. Time Alt. Az.
11 Dec 2.9 08:36:53 10° SSE 08:41:55 69° ENE 08:46:58 10° N visible
11 Dec 6.2 10:20:02 10° WSW 10:21:20 11° W 10:22:39 10° WNW visible
11 Dec 5.1 20:49:33 10° NE 20:54:01 30° E 20:58:28 10° SSE visible
12 Dec 3.8 08:01:00 10° SE 08:05:20 29° ENE 08:09:41 10° N visible
12 Dec 5.1 09:40:01 10° SSW 09:44:16 27° W 09:48:33 10° NW visible
12 Dec 6.2 20:14:48 10° ENE 20:16:59 13° E 20:19:09 10° ESE visible
13 Dec 3.4 09:02:21 10° S 09:07:22 65° WSW 09:12:26 10° NNW visible
13 Dec 3.8 21:14:36 10° NNE 21:19:36 57° E 21:24:34 10° S visible
14 Dec 3.1 08:25:46 10° SSE 08:30:40 53° ENE 08:35:36 10° N visible
14 Dec 5.9 10:07:11 10° SW 10:09:57 15° W 10:12:43 10° WNW visible
14 Dec 5.6 20:38:37 10° NE 20:42:41 24° E 20:46:43 10° SSE visible
15 Dec 4.6 09:28:20 10° SSW 09:32:56 35° W 09:37:34 10° NNW visible
16 Dec 3.0 08:51:01 10° SSE 08:56:05 84° WSW 09:01:12 10° NNW visible
16 Dec 4.4 21:03:27 10° NNE 21:08:18 43° E 21:13:07 10° S visible
17 Dec 3.4 08:14:43 10° SE 08:19:26 41° ENE 08:24:11 10° N visible
17 Dec 5.6 09:55:01 10° SW 09:58:34 19° W 10:02:09 10° NW visible
17 Dec 5.9 20:27:50 10° NE 20:31:19 18° E 20:34:48 10° SE visible
18 Dec 4.1 09:16:46 10° S 09:21:36 45° W 09:26:28 10° NNW visible
19 Dec 2.9 08:39:47 10° SSE 08:44:50 76° ENE 08:49:55 10° N visible
19 Dec 4.9 20:52:23 10° NNE 20:56:58 34° E 21:01:32 10° SSE visible
20 Dec 3.7 08:03:47 10° SE 08:08:14 32° ENE 08:12:42 10° N visible
20 Dec 5.2 09:43:07 10° SSW 09:47:13 25° W 09:51:21 10° NW visible
20 Dec 6.1 20:17:18 10° ENE 20:19:57 14° E 20:22:34 10° ESE visible
